Location: Caltech
(34.1382°N, 118.1253°W)
Time: 10:44:42
(UTC-07:00)

AO-7 - Visible Passes

Search period start: 28 March 2015 00:00
Search period end: 07 April 2015 00:00
Orbit: 1440 x 1459 km, 101.5° (Epoch: 27 March)

Date Brightness Start Highest point End Pass type
(mag) Time Alt. Az. Time Alt. Az. Time Alt. Az.
28 Mar ? 04:46:59 10° NNE 04:55:10 61° ESE 05:03:21 10° S visible
29 Mar ? 03:48:34 10° NE 03:54:41 23° E 04:01:09 10° SE visible
29 Mar ? 05:39:54 10° N 05:48:05 64° WNW 05:56:13 10° SSW visible
30 Mar ? 04:40:07 10° NNE 04:48:11 55° ESE 04:56:18 10° S visible
31 Mar ? 03:42:00 10° NE 03:47:38 21° E 03:53:42 10° SE visible
31 Mar ? 05:32:55 10° NNE 05:41:10 71° WNW 05:49:24 10° SSW visible
01 Apr ? 04:33:16 10° NNE 04:41:13 50° E 04:49:13 10° S visible
02 Apr ? 03:35:30 10° NE 03:40:34 18° E 03:46:09 10° SE visible
02 Apr ? 05:25:57 10° NNE 05:34:15 78° WNW 05:42:32 10° SSW visible
03 Apr ? 04:26:26 10° NNE 04:34:13 45° E 04:42:06 10° S visible
04 Apr ? 03:29:06 10° ENE 03:33:29 16° E 03:38:29 10° SE visible
04 Apr ? 05:18:59 10° NNE 05:27:20 85° WNW 05:35:39 10° SSW visible
05 Apr ? 04:19:38 10° NNE 04:27:14 40° E 04:34:57 10° SSE visible
06 Apr ? 03:22:52 10° ENE 03:26:25 14° E 03:30:39 10° ESE visible
06 Apr ? 05:12:03 10° NNE 05:20:24 88° ESE 05:28:44 10° SSW visible
